METAR weather report URUGUAY

METAR es el estándar internacional del formato del código utilizado para emitir informes de las observaciones meteorológicas en los aeródromos.

Consta de una sigla traducida del francés (MÉTéorologique Aviation Régulière) como Informe meteorológico aeronáutico de rutinaria (en inglés: METeorological Aerodrome Report).

Los reportes METAR usualmente vienen de los aeropuertos y típicamente se emiten cada media o una hora, sin embargo, si las condiciones cambian significativamente pueden actualizarse con reportes llamados SPECI.

El código SPECI es el nombre en código dado al METAR emitido en una rutina no programada especial, ocasionada por cambios en las condiciones meteorológicas.

La sigla SPECI se traduce como Selección Especial del Reporte Meteorológico para la Aviación.

METAR es usado por los meteorólogos para ayudarse en los pronósticos del tiempo, y fundamentalmente por los pilotos de las aeronaves para conocer la meteorología de los aeropuertos de destino y actuar en consecuencia.

El formato que ha sido introducido en 1968 se consigue para determinado aeródromo por su código ICAO/OACI y contempla entre otros datos: viento, visibilidad, nubosidad y temperatura.
 


METAR is a format for reporting weather information.

A METAR weather report is predominantly used by pilots in fulfillment of a part of a pre-flight weather briefing, and by meteorologists, who use aggregated METAR information to assist in weather forecasting.

Raw METAR is the most popular format in the world for the transmission of weather data.

It is highly standardized through International Civil Aviation Organization (ICAO), which allows it to be understood throughout most of the world.

METAR reports typically come from airports or permanent weather observation stations.

Reports are typically generated once an hour; if conditions change significantly, however, they can be updated in special reports called SPECIs.

Some reports are encoded by automated airport weather stations located at airports, military bases, and other sites.

Some locations still use augmented observations, which are recorded by digital sensors, encoded via software, and then reviewed by certified weather observers or forecasters prior to being transmitted.

Observations may also be taken by trained observers or forecasters who manually observe and encode their observations prior to transmission.

The METAR format was introduced 1 January 1968 internationally and has been modified a number of times since.

A typical METAR report contains data for the temperature, dew point, wind speed and direction, precipitation, cloud cover and heights, visibility, and barometric pressure.

A METAR report may also contain information on precipitation amounts, lightning, and other information that would be of interest to pilots or meteorologists.


Last METAR data courtesy of NOAA and University of Wyoming

Station NameNueva Hesperides Airport - Salto 
ICAOSUSO 
Location31-22S 057-57W 
Elevation34m 
Time18/09/2021 16:00:00 UTC
Temperature23.0°C 
Wind ChillN/A 
Dew Point16.0°C 
RH65% 
WindSE (130 degrees) at 17 km/h 
Pressure1013.9 mb 
Visibility> 10.0km 
Heat Index24.5°C 
Sky ConditionBroken clouds at 700m
 
Weather  
Remarks  
METARSUSO 181600Z 13009KT 9999 BKN023 23/16 Q1014 

Station NameCarrasco Airport - Canelones 
ICAOSUMU 
Location34-49S 056-00W 
Elevation32m 
Time18/09/2021 16:00:00 UTC
Temperature20.0°C 
Wind ChillN/A 
Dew Point15.0°C 
RH73% 
WindSSE (150 degrees) at 13 km/h 
Pressure1015.9 mb 
Visibility> 10.0km 
Heat IndexN/A 
Sky ConditionFew clouds at 610m
 
Weather  
Remarks  
METARSUMU 181600Z 15007KT 9999 FEW020 20/15 Q1016 NOSIG  

Station NameLaguna de los Patos Airport - Colonia 
ICAOSUCA 
Location34-27S 057-49W 
Elevation23m 
Time18/09/2021 16:00:00 UTC
Temperature19.0°C 
Wind ChillN/A 
Dew Point16.0°C 
RH83% 
WindSE (140 degrees) at 15 km/h 
Pressure1015.9 mb 
Visibility> 10.0km 
Heat IndexN/A 
Sky ConditionFew clouds at 790m
 
Weather  
Remarks  
METARSUCA 181600Z 14008KT 110V170 9999 FEW026 19/16 Q1016 

Station NameSanta Bernardina Airport - Durazno 
ICAOSUDU 
Location33-21S 056-30W 
Elevation93m 
Time18/09/2021 16:00:00 UTC
Temperature19.0°C 
Wind ChillN/A 
Dew Point16.0°C 
RH83% 
WindESE (120 degrees) at 9 km/h 
Pressure1015.9 mb 
Visibility> 10.0km 
Heat IndexN/A 
Sky ConditionBroken clouds at 400m
 
Weather  
Remarks  
METARSUDU 181600Z 12005KT 9999 BKN013 19/16 Q1016 

Station NameAngel S. Adami Airport - Montevideo 
ICAOSUAA 
Location34-46S 056-15W 
Elevation54m 
Time18/09/2021 16:24:00 UTC
Temperature22.0°C 
Wind ChillN/A 
Dew Point15.0°C 
RH65% 
WindS (180 degrees) at 198 km/h 
Pressure1015.9 mb 
Visibility7.0km 
Heat Index24.1°C 
Sky ConditionFew clouds at 550m
 
Weather  
Remarks  
METARSUAA 181624Z 180107KT 7000 FEW018 22/15 Q1016 

Station NameLaguna del Sauce Airport - Maldonado 
ICAOSULS 
Location34-52S 055-06W 
Elevation30m 
Time18/09/2021 16:00:00 UTC
Temperature19.0°C 
Wind ChillN/A 
Dew Point14.0°C 
RH73% 
WindS (180 degrees) at 15 km/h 
Pressure1015.9 mb 
Visibility> 10.0km 
Heat IndexN/A 
Sky ConditionFew clouds at 610m
 
Weather  
Remarks  
METARSULS 181600Z 18008KT 9999 FEW020 19/14 Q1016 

Process: 18/09/2021 16:56:37 UTC

MENU